weather.gov     
National Weather Service

Regional Weather Roundup
NWS Homepage
This page is being discontinued on March 12, 2014.
The same data is available at this site. Please update your bookmarks.
Thank you, and we apologize for the inconvenience.
Please send an email to SR-SRH.Webmaster@noaa.gov with any concerns.


Current Version
Previous Version:    01  02  03  04  05  06  07  08  09  10  11  12  13  14  15  16  17  18  19  20  21  22  23  24  25  26  27  28  29  30  
   31  32  33  34  35  36  37  38  39  40  41  42  43  44  45  46  47  48  49  50  51  52  53  54  
[Printable]
596
ASUS45 KPSR 270900
RWRAZ

PRELIMINARY ARIZONA REGIONAL HOURLY WEATHER ROUNDUP
NATIONAL WEATHER SERVICE PHOENIX AZ
200 AM MST WED AUG 27 2014

NOTE: FAIR INDICATES FEW OR NO CLOUDS BELOW 12,000 FEET WITH NO
SIGNIFICANT WEATHER AND/OR OBSTRUCTIONS TO VISIBILITY.

AZZ001>003-036-271000-
NORTHWEST ARIZONA

CITY           SKY/WX    TMP DP  RH WIND       PRES   REMARKS
KINGMAN        CLEAR     68  58  70 SE10      30.09S
$$

AZZ004>008-015-016-018-271000-
NORTH CENTRAL ARIZONA

CITY           SKY/WX    TMP DP  RH WIND       PRES   REMARKS
GRAND CANYON     N/A    N/A N/A N/A MISG        N/A
WILLIAMS       PTCLDY    52  48  87 S6        30.37F
PRESCOTT       PTCLDY    60  56  86 W3        30.21F
FLAGSTAFF      MOCLDY    48  47  96 CALM      30.33F
PAYSON         PTCLDY    61  52  72 NE5       30.25F
PAGE           MOCLDY    59  51  75 SW5       30.25S
$$

AZZ009>014-017-271000-
NORTHEAST ARIZONA

CITY           SKY/WX    TMP DP  RH WIND       PRES   REMARKS
WINSLOW        NOT AVBL
SAINT JOHNS    CLEAR     53  53 100 W6        30.26F
$$

AZZ023-271000-
GREATER PHOENIX AREA

CITY           SKY/WX    TMP DP  RH WIND       PRES   REMARKS
PHOENIX        PTCLDY    85  63  47 SE5       29.95S
LUKE AFB       NOT AVBL
DEER VALLEY    PTCLDY    83  61  47 E5        29.97F
SCOTTSDALE     CLEAR     84  60  44 S5        29.99S
MESA-GATEWAY   CLEAR     79  63  57 S7        30.00S
$$

AZZ027-028-271000-
SOUTHWEST MARICOPA COUNTY AND PINAL COUNTY

CITY           SKY/WX    TMP DP  RH WIND       PRES   REMARKS
CASA GRANDE    CLEAR     81  64  57 CALM      29.99S
$$

AZZ503-504-507>509-271000-
SOUTHEAST ARIZONA

CITY           SKY/WX    TMP DP  RH WIND       PRES   REMARKS
TUCSON         PTCLDY    75  65  70 CALM      30.08S
DAVIS-MONTHAN  CLEAR     74  65  74 SE6       30.06F
NOGALES        MOCLDY    67  63  87 NE6       30.15S
SIERRA VISTA   MOCLDY    66  64  94 CALM      30.21R
SAFFORD        MOCLDY    71  65  81 N3        30.11S
$$

AZZ020-021-025-026-031-271000-
SOUTHWEST ARIZONA

CITY           SKY/WX    TMP DP  RH WIND       PRES   REMARKS
YUMA           NOT AVBL
$$

CAZ031-033-041-043-047-048-061-271000-
SOUTHERN CALIFORNIA

CITY           SKY/WX    TMP DP  RH WIND       PRES   REMARKS
DOWNTOWN L.A.  CLEAR     68  61  78 CALM      29.98S
L.A. AIRPORT   CLEAR     69  62  78 CALM      29.99S
SAN DIEGO      PTCLDY    71  65  81 N3        30.00S
BURBANK        CLEAR     71  55  56 CALM      30.00S
ONTARIO        CLEAR     72  56  57 CALM      30.01S
RIVERSIDE      CLEAR     71  59  65 CALM      30.01S
PALM SPRINGS   CLEAR     86  49  27 VRB3      29.90F
IMPERIAL       CLEAR     81  49  32 SW5       29.87R
BLYTHE         CLEAR     85  59  41 S9        29.87S
$$

NVZ020-UTZ003-271000-
SOUTHERN NEVADA-UTAH

CITY           SKY/WX    TMP DP  RH WIND       PRES   REMARKS
LAS VEGAS      NOT AVBL
SALT LAKE CITY MOCLDY    60  54  80 SE6       30.16F
$$

NMZ009-TXZ055-271000-
NEW MEXICO-WEST TEXAS

CITY           SKY/WX    TMP DP  RH WIND       PRES   REMARKS
ALBUQUERQUE    CLOUDY    62  58  86 E7        30.26F
EL PASO        LGT RAIN  70  65  84 N3        30.15F
$$


........................KEY........................
SKY/WX - SKY CONDITION/WEATHER
TMP    - TEMPERATURE IN FAHRENHEIT
DP     - DEW POINT IN FAHRENHEIT
RH     - RELATIVE HUMIDITY IN PERCENT
WIND   - DIRECTION AND SPEED IN MILES PER HOUR (MPH)
VRB    - VARIABLE WIND DIRECTION
PRES   - MEAN SEA LEVEL PRESSURE IN INCHES OF MERCURY
         F - FALLING PRESSURE   R - RISING PRESSURE
         S - STEADY PRESSURE
VSB    - VISIBILITY IN MILES
HX     - HEAT INDEX IN FAHRENHEIT
WCI    - WIND CHILL INDEX IN FAHRENHEIT
TC     - TEMPERATURE IN CELSIUS WHICH IS ALSO KNOWN AS
         TEMPERATURE IN CENTIGRADE
AFB    - AIR FORCE BASE
         LUKE AFB IS LUKE AIR FORCE BASE
         DAVIS-MONTHAN IS DAVIS-MONTHAN AIR FORCE BASE
NAS    - NAVAL AIR STATION
         EL CENTRO NAS IS EL CENTRO NAVAL AIR STATION
N/A    - NOT AVAILABLE




U.S. Dept. of Commerce
NOAA National Weather Service
1325 East West Highway
Silver Spring, MD 20910
E-mail: w-nws.webmaster@noaa.gov
Page last modified: May 16, 2007
NATIONAL WEATHER SERVICE: for Safety, for Work, for Fun - FOR LIFE